Weather History for 10400 - May, 2013

Change the Weather History Date:

Friday, May 17, 2013

  Actual Average Record
Temperature  
Mean Temperature 50 °F -  
Max Temperature 52 °F 68 °F - ()
Min Temperature 48 °F 49 °F - ()
Degree Days  
Heating Degree Days 15    
Moisture  
Dew Point 48 °F    
Average Humidity 92    
Maximum Humidity 100    
Minimum Humidity 83    
Precipitation  
Precipitation 0.01 in - - ()
Sea Level Pressure  
Sea Level Pressure 29.58 in    
Wind  
Wind Speed 6 mph ()    
Max Wind Speed 10 mph    
Max Gust Speed -    
Visibility 3.7 miles    
Events Rain    
T = Trace of Precipitation, MM = Missing Value Source: Averaged Metar Reports

Daily Weather History Graph

Daily Weather History Graph

Search for Another Location

Airport or City:

Trip Planner

Search our weather history database for the weather conditions in past years. The results will help you decide how hot, cold, wet, or windy it might be!

Date:

Astronomy

May. 17, 2013 Rise Set
Actual Time 5:39 AM CEST 9:20 PM CEST
Civil Twilight 4:57 AM CEST 10:02 PM CEST
Nautical Twilight 4:00 AM CEST 10:59 PM CEST
Astronomical Twilight 2:33 AM CEST 12:30 AM CEST
Moon 12:14 PM CEST (5/17) 1:48 AM CEST (5/17)
Length of Visible Light 17h 04m
Length of Day
15h 41m
Waxing Crescent, 42% of the Moon is Illuminated
May 17
Waxing Crescent
May 18
First Quarter
May 25
Full
May 31
Last Quarter
Jun 8
New

Hourly Weather History & Observations

Time (CEST) Temp. Dew Point Humidity Pressure Visibility Wind Dir Wind Speed Gust Speed Precip Events Conditions
12:00 AM 50 °F 49 °F 95% 29.50 in 4 mi WSW 8.9 mph - -   Mist
12:20 AM 50.0 °F 48.2 °F 94% 29.47 in 3.7 mi WSW 10.4 mph - N/A   Overcast
12:50 AM 50.0 °F 48.2 °F 94% 29.50 in 3.7 mi WSW 5.8 mph - N/A   Overcast
1:00 AM 49 °F 48 °F 95% 29.51 in 4 mi WSW 6.7 mph - -   Mist
1:20 AM 50.0 °F 48.2 °F 94% 29.47 in 3.7 mi West 6.9 mph - N/A   Overcast
1:50 AM 50.0 °F 48.2 °F 94% 29.50 in 4.3 mi WSW 8.1 mph - N/A   Mostly Cloudy
2:00 AM 49 °F 47 °F 92% 29.51 in 4 mi WSW 8.9 mph - -   Mist
2:20 AM 48.2 °F 46.4 °F 93% 29.50 in 4.3 mi WSW 9.2 mph - N/A   Mostly Cloudy
2:50 AM 48.2 °F 46.4 °F 93% 29.50 in 4.3 mi WSW 5.8 mph - N/A   Mostly Cloudy
3:00 AM 49 °F 47 °F 88% 29.52 in 4 mi WSW 6.7 mph - -   Mist
3:20 AM 48.2 °F 46.4 °F 93% 29.50 in 4.3 mi SW 3.5 mph - N/A   Mostly Cloudy
3:50 AM 48.2 °F 46.4 °F 93% 29.50 in 4.3 mi SW 5.8 mph - N/A   Overcast
4:00 AM 49 °F 47 °F 89%  in 4 mi SW 4.5 mph - -   Mist
4:20 AM 48.2 °F 46.4 °F 93% 29.50 in 4.3 mi WSW 4.6 mph - N/A   Overcast
4:50 AM 48.2 °F 46.4 °F 93% 29.53 in 4.3 mi SW 5.8 mph - N/A   Overcast
5:20 AM 48.2 °F 46.4 °F 93% 29.53 in 2.8 mi WSW 5.8 mph - N/A   Overcast
5:50 AM 48.2 °F 46.4 °F 93% 29.53 in 1.7 mi WSW 5.8 mph - N/A   Overcast
6:00 AM 49 °F 47 °F 91% 29.54 in 2 mi WSW 4.5 mph - -   Mist
6:20 AM 48.2 °F 46.4 °F 93% 29.53 in 1.6 mi SW 5.8 mph - N/A   Overcast
6:50 AM 48.2 °F 48.2 °F 100% 29.53 in 1.7 mi WSW 6.9 mph - N/A   Overcast
7:00 AM 48 °F 47 °F 97% 29.55 in 2 mi WSW 6.7 mph - - Rain Light Rain
7:20 AM 48.2 °F 46.4 °F 93% 29.53 in 1.7 mi WSW 6.9 mph - N/A   Overcast
7:50 AM 48.2 °F 48.2 °F 100% 29.56 in 1.2 mi WSW 8.1 mph - N/A   Overcast
8:00 AM 49 °F 48 °F 93% 29.57 in 1 mi WSW 6.7 mph - - Rain Light Rain
8:20 AM 48.2 °F 48.2 °F 100% 29.53 in 1.6 mi West 8.1 mph - N/A   Overcast
8:50 AM 50.0 °F 48.2 °F 94% 29.56 in 1.1 mi West 5.8 mph - N/A   Overcast
9:00 AM 49 °F 48 °F 95% 29.57 in 1 mi West 6.7 mph - -   Mist
9:20 AM 50.0 °F 48.2 °F 94% 29.56 in 0.7 mi WNW 5.8 mph - N/A   Overcast
9:50 AM 50.0 °F 50.0 °F 100% 29.56 in 1.1 mi West 5.8 mph - N/A Rain Light Rain
10:00 AM 49 °F 49 °F 100% 29.59 in 1 mi West 6.7 mph - - Rain Light Rain
10:20 AM 50.0 °F 48.2 °F 94% 29.56 in 2.5 mi WNW 9.2 mph - N/A   Overcast
10:50 AM 50.0 °F 48.2 °F 94% 29.56 in 3.1 mi NW 6.9 mph - N/A   Overcast
11:20 AM 50.0 °F 48.2 °F 94% 29.56 in 3.1 mi WNW 8.1 mph - N/A   Overcast
11:50 AM 50.0 °F 48.2 °F 94% 29.56 in 3.1 mi NW 6.9 mph - N/A   Mostly Cloudy
12:00 PM 51 °F 48 °F 87% 29.59 in 3 mi NW 6.7 mph - -   Mist
12:20 PM 51.8 °F 48.2 °F 88% 29.59 in 3.1 mi WNW 5.8 mph - N/A   Mostly Cloudy
12:50 PM 51.8 °F 48.2 °F 88% 29.59 in 3.1 mi NW 6.9 mph - N/A   Mostly Cloudy
1:00 PM 51 °F 48 °F 87% 29.60 in 3 mi NW 6.7 mph - -   Mist
1:20 PM 51.8 °F 48.2 °F 88% 29.59 in 3.7 mi NW 6.9 mph - N/A   Mostly Cloudy
1:50 PM 51.8 °F 48.2 °F 88% 29.59 in 3.7 mi WNW 6.9 mph - N/A   Mostly Cloudy
2:00 PM 52 °F 49 °F 84% 29.60 in 4 mi WNW 6.7 mph - -   Mist
2:20 PM 51.8 °F 48.2 °F 88% 29.59 in 4.3 mi WNW 4.6 mph - N/A   Mostly Cloudy
2:50 PM 51.8 °F 48.2 °F 88% 29.59 in 4.3 mi West 6.9 mph - N/A   Mostly Cloudy
3:00 PM 52 °F 49 °F 84% 29.62 in 4 mi West 6.7 mph - -   Mist
3:20 PM 51.8 °F 48.2 °F 88% 29.62 in 4.3 mi WNW 5.8 mph - N/A   Mostly Cloudy
3:50 PM 51.8 °F 48.2 °F 88% 29.62 in 3.7 mi WSW 8.1 mph - N/A   Mostly Cloudy
4:00 PM 52 °F 48 °F 83% 29.64 in 4 mi WSW 8.9 mph - -   Mist
4:20 PM 51.8 °F 48.2 °F 88% 29.62 in 1.6 mi WSW 8.1 mph - N/A Rain Light Rain
4:50 PM 51.8 °F 50.0 °F 94% 29.62 in 2.2 mi West 8.1 mph - N/A   Mostly Cloudy
5:20 PM 51.8 °F 50.0 °F 94% 29.62 in 3.7 mi West 2.3 mph - N/A   Light Drizzle
5:50 PM 51.8 °F 50.0 °F 94% 29.62 in 3.7 mi West 5.8 mph - N/A   Mostly Cloudy
6:00 PM 51 °F 49 °F 92% 29.64 in 4 mi West 4.5 mph - - Rain Light Rain
6:20 PM 51.8 °F 50.0 °F 94% 29.62 in 4.3 mi WSW 8.1 mph - N/A   Mostly Cloudy
6:50 PM 51.8 °F 50.0 °F 94% 29.65 in 5.0 mi West 6.9 mph - N/A   Mostly Cloudy
7:00 PM 51 °F 49 °F 90% 29.65 in 5 mi West 6.7 mph - -   Overcast
7:20 PM 51.8 °F 48.2 °F 88% 29.65 in 5.6 mi West 6.9 mph - N/A   Mostly Cloudy
7:50 PM 51.8 °F 48.2 °F 88% 29.65 in 6.2 mi West 5.8 mph - N/A   Mostly Cloudy
8:00 PM 51 °F 49 °F 90% 29.66 in 6 mi West 6.7 mph - -   Partly Cloudy
8:20 PM 51.8 °F 48.2 °F 88% 29.65 in 6.2 mi West 5.8 mph - N/A Rain Light Rain
8:50 PM 51.8 °F 48.2 °F 88% 29.65 in 6.2 mi West 5.8 mph - N/A Rain Light Rain
9:00 PM 51 °F 49 °F 90% 29.67 in 9 mi West 4.5 mph - - Rain Light Rain
9:20 PM 51.8 °F 48.2 °F 88% 29.65 in 6.2 mi WSW 5.8 mph - N/A   Mostly Cloudy
9:50 PM 51.8 °F 48.2 °F 88% 29.65 in 5.0 mi West 6.9 mph - N/A   Light Drizzle
10:00 PM 51 °F 49 °F 89% 29.68 in 5 mi West 6.7 mph - - Rain Light Drizzle
10:20 PM 50.0 °F 48.2 °F 94% 29.68 in 5.6 mi West 6.9 mph - N/A   Mostly Cloudy
10:50 PM 50.0 °F 48.2 °F 94% 29.68 in 5.0 mi WSW 6.9 mph - N/A   Overcast
11:20 PM 50.0 °F 48.2 °F 94% 29.68 in 5.6 mi WSW 8.1 mph - N/A   Mostly Cloudy
11:50 PM 50.0 °F 48.2 °F 94% 29.68 in 5.6 mi WSW 10.4 mph - N/A   Mostly Cloudy